Regional Weather Roundup
Issued by NWS New Orleans/Baton Rouge, LA

Home | Current Version | Previous Version | Graphics & Text | Print | Product List | Glossary On
Versions: 1 2 3 4 5 6 7 8 9 10 11 12 13 14 15 16 17 18 19 20 21 22 23 24 25 26 27 28 29 30 31 32 33 34 35 36 37 38 39 40 41 42 43 44 45 46 47 48 49 50
749
ASUS44 KLIX 191910
RWRLIX
NEW ORLEANS REGIONAL WEATHER ROUNDUP
NATIONAL WEATHER SERVICE NEW ORLEANS LA
200 PM CDT FRI SEP 19 2014

NOTE: "FAIR" INDICATES FEW OR NO CLOUDS BELOW 12,000 FEET WITH NO
      SIGNIFICANT WEATHER AND/OR OBSTRUCTIONS TO VISIBILITY.
      SKY/WX - SKY CONDITION AND SIGNIFICANT WEATHER.
      TMP - AIR TEMPERATURE.     DP    - DEWPOINT TEMPERATURE.
      RH  - RELATIVE HUMIDITY.   PRES  - PRESSURE.
      HI  - HEAT INDEX.          WCI   - WIND CHILL INDEX.

*  THESE STATIONS ARE NOT NWS OR FAA STATIONS AND ARE NOT UNDER
   NWS QUALITY CONTROL.

LAZ038-040-048-061>063-065>067-069-192000-
SOUTHEAST LOUISIANA

CITY           SKY/WX    TMP DP  RH WIND       PRES   REMARKS
N.O. AUDUBON   NOT AVBL
N.O. INTL ARPT PTSUNNY   88  65  46 E13       29.94F
N.O. LAKEFRONT MOSUNNY   86  67  52 E14       29.95F
N.O. DOWNTOWN*   N/A     84  66  54 NE10G17   29.95F
SLIDELL        MOSUNNY   87  68  52 E6        29.94F
BATON ROUGE    PTSUNNY   87  70  56 E9        29.95F
BOOTHVILLE     LGT RAIN  77  71  82 E10G21    29.95F
BELLE CHASSE   PTSUNNY   86  68  54 E13       29.93F
BOGALUSA*        N/A     84  69  60 E3        29.98F
GALLIANO*      NOT AVBL
NEW ROADS*     MOCLDY    86  70  57 E8        29.95F
GONZALES*      MOCLDY    86  72  62 NE5       29.94F
HAMMOND*       MOSUNNY   90  66  45 SE7       29.97F
HOUMA*         PTSUNNY   84  52  32 NE12      29.93F
PORT FOURCHON* MOCLDY    81  72  74 E18       29.95S

$$

MSZ070-080>082-192000-
SOUTHERN MISSISSIPPI

CITY           SKY/WX    TMP DP  RH WIND       PRES   REMARKS
MCCOMB         MOSUNNY   85  67  54 CALM      29.97F
GULFPORT       MOSUNNY   86  66  51 SE15G25   29.95F
BILOXI         MOSUNNY   89  67  48 SE10      29.96F
PASCAGOULA     MOSUNNY   86  63  45 E10       29.96F
STENNIS ARPT*  MOSUNNY   86  64  48 SE12G17   29.96F

$$

COASTAL OBSERVATIONS
LAKE AND NEARSHORE STATIONS

STATION/POSITION TIME  TEMP    WIND        PRES    WAVE
                       AIR SEA DIR/SP/G            HT/PER
                 (UTC) (F)     (DEG/KT/KT) (MB)    (FT/S)
PASCAGOULA       1900   85     100/ 10/ 15 1014.2
WAVELAND YACHT   1900   82     120/ 11/ 14 1013.9
GRAND ISLE       1900   75 84  100/ 15/ 23 1014.5
SOUTHWEST PASS   1900   81 90  100/ 24/ 28 1013.6
NEW CANAL        1900   83 82   70/ 11/ 13 1014.3
SHELL BEACH      1900   83 79   70/ 15/ 18 1013.9

OFFSHORE STATIONS

STATION/POSITION TIME  TEMP    WIND        PRES    WAVE
                       AIR SEA DIR/SP/G            HT/PER
                 (UTC) (F)     (DEG/KT/KT) (MB)    (FT/S)
64 S DAUPHIN ISL 1755   78 84  100/ 25/ 29 1014.2    5/ 5

$$




USA.gov is the U.S. government's official web portal to all federal, state and local government web resources and services.